ONEWEB-0088 (45457 NORAD) Tracking and Keplerian Element Data

This shows tracking and keplerian element data for the satellite.

Feedback or suggestion? Click here.




ElementValue
Catalog45457
NameONEWEB-0088
Epoch Orbit3206
Epoch Day297.91667824
Epoch Year2020
RAAN71.7178
Inclination87.7969
Eccentricity0.0021555
Argument of Perigee254.5117
Mean Anonmoly290.2402
Mean Motion13.95964626
Decay Rate-0.00021193
L11 45457U 20020AK 20297.91667824 -.00021193 00000-0 -15522-1 0 9996
L22 45457 87.7969 71.7178 0021555 254.5117 290.2402 13.95964626 32068

Live tracking and technical data element details for ONEWEB-0088 (NORAD 45457). ONEWEB-0088 can be tracked NOW for your location showing map with azimuth and elevation plus other details from your city location.

Track the satellite on the map from your city or location and see movement details for azimuth, elevation, latitude, longitude, range, height, and movement on the map or in text.







IsCatalogInMostPopularTable: catalog: 45457, numindb: 64
Update: records affected: 1



GetName: 45457 ONEWEB-0088

Hit Count: updated at: Sat, 24 Oct 2020 23:01:26 GMT